Regional Weather Roundup
Issued by NWS

Home | Current Version | Previous Version | Text Only | Print | Product List | Glossary Off
Versions: 1 2 3 4 5 6 7 8 9 10 11 12 13 14 15 16 17 18 19 20 21 22 23 24 25 26 27 28 29 30 31 32 33 34 35 36 37 38 39 40 41 42 43 44 45 46 47 48 49 50

098
ASUS43 KBIS 181202
RWRND

NORTH DAKOTA REGIONAL WEATHER ROUNDUP
NATIONAL WEATHER SERVICE BISMARCK ND
600 AM CST SAT NOV 18 2017

NOTE: "FAIR" INDICATES FEW OR NO CLOUDS BELOW 12,000 FEET WITH NO
SIGNIFICANT WEATHER AND/OR OBSTRUCTIONS TO VISIBILITY.


NDZ001>003-009>011-017-181300-
NORTHWEST NORTH DAKOTA

CITY           SKY/WX    TMP DP  RH WIND       PRES   REMARKS
WILLISTON      MOCLDY    13   8  81 W10       30.06S WCI   0
6HR MIN TEMP:   9; 6HR MAX TEMP:  14;

MINOT          MOCLDY    16  10  77 W20       30.00R WCI  -1
$$

NDZ018>021-031>035-040>046-181300-
SOUTHWEST NORTH DAKOTA

CITY           SKY/WX    TMP DP  RH WIND       PRES   REMARKS
BISMARCK       CLEAR     22  17  81 NW7       30.02R WCI  13
6HR MIN TEMP:  19; 6HR MAX TEMP:  29;

DICKINSON      CLEAR     13   9  84 NW10      30.01R WCI   0
GARRISON         N/A     14  10  84 NW18      30.02R WCI  -3
6HR MIN TEMP:  12; 6HR MAX TEMP:  17;

HETTINGER ARPT CLEAR     19  15  84 NW12      30.01R WCI   7
$$

NDZ004>008-012>016-024-026-027-054-181300-
NORTHEAST NORTH DAKOTA

CITY           SKY/WX    TMP DP  RH WIND       PRES   REMARKS
GRAND FORKS    PTCLDY    16  10  77 NW9       29.91R WCI   4
GRND FRKS AFB  CLOUDY    16  10  74 NW12      29.91R WCI   3
DEVILS LAKE    CLOUDY    14  10  84 NW20      29.94R WCI  -3
$$

NDZ022-023-025-028>030-036>039-047>053-181300-
SOUTHEAST NORTH DAKOTA

CITY           SKY/WX    TMP DP  RH WIND       PRES   REMARKS
FARGO          CLOUDY    21  16  81 NW12      29.91R WCI   9
6HR MIN TEMP:  17; 6HR MAX TEMP:  22;

JAMESTOWN      CLOUDY    19  14  81 NW14      29.92R WCI   6
$$





USA.gov is the U.S. government's official web portal to all federal, state and local government web resources and services.